EW0139 Weather Reports


Display with metric or nautical units.
time (UTC)temp
F
wind
direction
speed
MPH
gust
MPH
rain 1hr
in
rain 24hr
in
rain mn
in
humidity
%
barometer
mb
20260503225817 77 290 22.0 32.0 0.00 0.00 0.00 21 1002.0
20260503224757 77 255 23.0 28.0 0.00 0.00 0.00 21 1001.8
20260503223757 77 279 23.0 31.0 0.00 0.00 0.00 22 1002.2
20260503222800 77 250 26.0 31.0 0.00 0.00 0.00 22 1002.3
20260503221800 77 261 16.0 28.0 0.00 0.00 0.00 23 1002.6
20260503220759 76 237 28.0 32.0 0.00 0.00 0.00 22 1002.7
20260503215821 76 236 26.0 33.0 0.00 0.00 0.00 22 1002.9
20260503214746 77 259 18.0 29.0 0.00 0.00 0.00 24 1002.9
20260503213745 76 251 26.0 30.0 0.00 0.00 0.00 23 1003.3
20260503212746 77 277 24.0 30.0 0.00 0.00 0.00 23 1003.5
20260503211807 76 224 22.0 29.0 0.00 0.00 0.00 25 1003.8
20260503210748 76 259 29.0 33.0 0.00 0.00 0.00 25 1003.9
20260503205752 76 246 14.0 31.0 0.00 0.00 0.00 24 1004.1
20260503204755 75 245 23.0 29.0 0.00 0.00 0.00 25 1004.4
20260503203754 76 253 20.0 29.0 0.00 0.00 0.00 24 1004.5
20260503202819 75 265 15.0 29.0 0.00 0.00 0.00 25 1004.5
20260503201742 74 256 13.0 25.0 0.00 0.00 0.00 26 1004.8
20260503200743 74 224 11.0 23.0 0.00 0.00 0.00 28 1005.0
20260503195743 75 223 12.0 24.0 0.00 0.00 0.00 26 1005.3
20260503194744 74 236 15.0 21.0 0.00 0.00 0.00 28 1005.4
20260503193746 73 217 16.0 23.0 0.00 0.00 0.00 29 1005.9
20260503192753 73 240 15.0 32.0 0.00 0.00 0.00 29 1006.1
20260503191754 72 244 14.0 19.0 0.00 0.00 0.00 28 1006.3
20260503190754 72 241 5.0 19.0 0.00 0.00 0.00 30 1006.6
20260503185755 72 216 16.0 18.0 0.00 0.00 0.00 30 1006.7
20260503184741 72 264 16.0 21.0 0.00 0.00 0.00 31 1007.2
20260503183742 71 212 6.0 19.0 0.00 0.00 0.00 31 1007.5
20260503182806 70 271 14.0 20.0 0.00 0.00 0.00 30 1007.8
20260503181805 70 254 15.0 18.0 0.00 0.00 0.00 33 1008.1
20260503180744 70 285 13.0 23.0 0.00 0.00 0.00 33 1008.2
20260503175748 69 258 13.0 19.0 0.00 0.00 0.00 32 1008.6
20260503174749 69 206 15.0 19.0 0.00 0.00 0.00 31 1008.7
20260503173748 69 238 12.0 19.0 0.00 0.00 0.00 32 1008.8
20260503172749 69 264 14.0 19.0 0.00 0.00 0.00 36 1008.9
20260503171753 68 273 15.0 19.0 0.00 0.00 0.00 39 1009.0
20260503170754 68 251 10.0 17.0 0.00 0.00 0.00 39 1009.1
20260503150758 55 211 1.0 4.0 0.00 0.00 0.00 52 1011.3
20260503130749 38 317 0.0 6.0 0.00 0.00 0.00 79 1012.2
20260503110743 33 317 0.0 2.0 0.00 0.00 0.00 81 1012.7
20260503080746 39 302 1.0 2.0 0.00 0.00 0.00 75 1013.3
20260503072738 40 301 0.0 3.0 0.00 0.00 0.00 75 1013.5
20260503071746 40 301 3.0 4.0 0.00 0.00 0.00 75 1013.5
20260503070746 40 302 3.0 4.0 0.00 0.00 0.00 75 1013.6
20260503054752 42 301 2.0 3.0 0.00 0.00 0.00 71 1013.6
20260503053755 43 302 1.0 3.0 0.00 0.00 0.00 71 1013.6
20260503052755 43 302 2.0 4.0 0.00 0.00 0.00 72 1013.7
20260503051743 43 302 0.0 1.0 0.00 0.00 0.00 70 1013.7
20260503050807 44 301 1.0 2.0 0.00 0.00 0.00 69 1013.7
20260503045746 44 301 0.0 3.0 0.00 0.00 0.00 69 1013.7
20260503044809 46 302 1.0 1.0 0.00 0.00 0.00 65 1013.7
20260503043809 46 302 0.0 2.0 0.00 0.00 0.00 65 1013.8
20260503042808 46 302 1.0 3.0 0.00 0.00 0.00 66 1013.7
20260503041751 47 302 2.0 3.0 0.00 0.00 0.00 66 1013.6
20260503040750 47 302 2.0 2.0 0.00 0.00 0.00 63 1013.7
20260503035816 48 301 1.0 3.0 0.00 0.00 0.00 62 1013.6
20260503034755 49 302 2.0 2.0 0.00 0.00 0.00 62 1013.6
20260503033742 50 302 1.0 3.0 0.00 0.00 0.00 60 1013.6
20260503032744 51 302 1.0 1.0 0.00 0.00 0.00 58 1013.6
20260503031744 52 302 0.0 2.0 0.00 0.00 0.00 56 1013.7
20260503030745 52 301 0.0 1.0 0.00 0.00 0.00 55 1013.6
20260503025746 52 302 0.0 2.0 0.00 0.00 0.00 56 1013.6
20260503024750 54 302 2.0 2.0 0.00 0.00 0.00 51 1013.5
20260503023814 54 302 0.0 2.0 0.00 0.00 0.00 50 1013.3
20260503022757 55 302 2.0 2.0 0.00 0.00 0.00 50 1013.3
20260503021756 56 302 1.0 2.0 0.00 0.00 0.00 49 1013.2
20260503020744 58 302 2.0 2.0 0.00 0.00 0.00 48 1013.1
20260503015744 60 302 0.0 2.0 0.00 0.00 0.00 44 1013.1
20260503014745 61 302 1.0 1.0 0.00 0.00 0.00 39 1013.0
20260503013750 62 302 1.0 3.0 0.00 0.00 0.00 38 1013.0
20260503012751 62 301 2.0 4.0 0.00 0.00 0.00 37 1013.1
20260503011756 63 302 2.0 5.0 0.00 0.00 0.00 36 1013.1
20260503010820 64 300 5.0 10.0 0.00 0.00 0.00 34 1013.1
20260503005739 65 312 10.0 11.0 0.00 0.00 0.00 33 1013.2
20260503004744 65 304 9.0 14.0 0.00 0.00 0.00 33 1013.2
20260503003750 66 298 10.0 14.0 0.00 0.00 0.00 32 1013.3
20260503002749 66 292 10.0 18.0 0.00 0.00 0.00 32 1013.4
20260503001751 66 293 10.0 14.0 0.00 0.00 0.00 31 1013.5
20260503000750 66 284 5.0 12.0 0.00 0.00 0.00 31 1013.6
20260502235750 66 302 12.0 16.0 0.00 0.00 0.00 31 1013.5
20260502234753 66 281 9.0 17.0 0.00 0.00 0.00 31 1013.6
20260502233754 67 261 11.0 16.0 0.00 0.00 0.00 30 1013.7
20260502232759 66 292 14.0 17.0 0.00 0.00 0.00 31 1013.8
20260502231759 66 306 13.0 21.0 0.00 0.00 0.00 31 1013.9
20260502230744 66 321 10.0 13.0 0.00 0.00 0.00 32 1013.9